This is the latest recevied weather packets stored in our database for station/object OK1ALX-6. If no packets are shown the sender has not sent any weather packets the latest 10 day(s).
| Time | Temp. | Humidity | Pressure | Rain* | Wind** | Luminosity | Snow |
|---|---|---|---|---|---|---|---|
| 1777491003 | 6.11° C | 39% | 1035.9 hPa | 0 mm | - | 0 W/m² | - |
| 1777490403 | 6.11° C | 39% | 1035.7 hPa | 0 mm | - | 0 W/m² | - |
| 1777489803 | 6.67° C | 38% | 1035.1 hPa | 0 mm | - | 0 W/m² | - |
| 1777489211 | 6.67° C | 36% | 1035.1 hPa | 0 mm | - | 0 W/m² | - |
| 1777488612 | 7.22° C | 36% | 1034.9 hPa | 0 mm | - | 0 W/m² | - |
| 1777488011 | 7.22° C | 36% | 1035.2 hPa | 0 mm | - | 0 W/m² | - |
| 1777487404 | 7.22° C | 36% | 1034.7 hPa | 0 mm | - | 0 W/m² | - |
| 1777486803 | 7.22° C | 36% | 1034.6 hPa | 0 mm | - | 0 W/m² | - |
| 1777486203 | 7.78° C | 35% | 1034.5 hPa | 0 mm | - | 2 W/m² | - |
| 1777485603 | 8.33° C | 33% | 1034 hPa | 0 mm | - | 7 W/m² | - |
| 1777485003 | 8.33° C | 32% | 1033.8 hPa | 0 mm | - | 12 W/m² | - |
| 1777484411 | 8.89° C | 32% | 1033.7 hPa | 0 mm | - | 19 W/m² | - |
| 1777483803 | 8.89° C | 31% | 1033.4 hPa | 0 mm | - | 25 W/m² | - |
| 1777483203 | 9.44° C | 30% | 1033.3 hPa | 0 mm | - | 33 W/m² | - |
| 1777482603 | 9.44° C | 30% | 1033.2 hPa | 0 mm | - | 41 W/m² | - |
| 1777482004 | 9.44° C | 30% | 1033 hPa | 0 mm | - | 54 W/m² | - |
| 1777481403 | 9.44° C | 30% | 1032.9 hPa | 0 mm | - | 88 W/m² | - |
| 1777480803 | 10° C | 30% | 1032.9 hPa | 0 mm | - | 114 W/m² | - |
| 1777480203 | 10° C | 30% | 1032.4 hPa | 0 mm | - | 136 W/m² | - |
| 1777479603 | 10.56° C | 30% | 1032.8 hPa | 0 mm | - | 165 W/m² | - |
| 1777479004 | 10.56° C | 28% | 1032.3 hPa | 0 mm | - | 187 W/m² | - |
| 1777478403 | 10.56° C | 29% | 1032.3 hPa | 0 mm | - | 208 W/m² | - |
| 1777477803 | 10.56° C | 29% | 1032.1 hPa | 0 mm | - | 250 W/m² | - |
| 1777477203 | 10.56° C | 28% | 1032.2 hPa | 0 mm | - | 266 W/m² | - |
| 1777476603 | 10.56° C | 28% | 1032.1 hPa | 0 mm | - | 292 W/m² | - |
* Rain latest hour (hover to see other rain measurements)
** Current wind speed in m/s (hover to see current wind gust speed)